BAW951L LDSP-EGLL

Flight info

Callsign BAW951L
Flight time 2h 14m
Altitude 38000
Route ZDA1W ZDA DCT ROTAR DCT BORMI DCT RESIA DCT ELMUR DCT RIPUS DCT DITON DCT HOC DCT LUL DCT RLP DCT ROTSI DCT KOTUN DCT NINAL DCT ABNUR DCT DIMAL DCT ALESO ALESO1H
Aircraft A320/M-SDE3FGIJ1KRWXY/SB1

Departure

Time 2026-05-04 18:42
Airport Split Saint Jerome Airport (LDSP)

Arrival

Time 2026-05-04 20:56
Airport London Heathrow Airport (EGLL)
Time Latitude Longitude Altitude Speed Heading
2026-05-04 17:56 43.53726 16.29873 68 ft 0 kts 115°
2026-05-04 17:57 43.53726 16.29872 68 ft 0 kts 115°
2026-05-04 17:57 43.53691 16.29810 68 ft 0 kts 113°
2026-05-04 18:36 43.53691 16.29812 68 ft 1 kts 113°
2026-05-04 18:36 43.53693 16.29821 68 ft 1 kts 71°
2026-05-04 18:37 43.53707 16.29832 62 ft 3 kts 16°
2026-05-04 18:37 43.53729 16.29822 68 ft 4 kts 319°
2026-05-04 18:37 43.53740 16.29779 68 ft 6 kts 272°
2026-05-04 18:37 43.53718 16.29723 61 ft 8 kts 233°
2026-05-04 18:38 43.53683 16.29652 66 ft 9 kts 250°
2026-05-04 18:38 43.53689 16.29593 65 ft 4 kts 281°
2026-05-04 18:38 43.53693 16.29567 74 ft 2 kts 281°
2026-05-04 18:38 43.53695 16.29531 69 ft 3 kts 273°
2026-05-04 18:39 43.53694 16.29483 81 ft 12 kts 263°
2026-05-04 18:39 43.53649 16.29359 80 ft 15 kts 233°
2026-05-04 18:39 43.53582 16.29238 83 ft 16 kts 232°
2026-05-04 18:39 43.53504 16.29096 88 ft 21 kts 233°
2026-05-04 18:40 43.53405 16.28915 90 ft 25 kts 233°
2026-05-04 18:40 43.53293 16.28715 85 ft 27 kts 232°
2026-05-04 18:40 43.53199 16.28611 87 ft 14 kts 210°
2026-05-04 18:40 43.53212 16.28560 85 ft 7 kts 30°
2026-05-04 18:41 43.53222 16.28579 84 ft 0 kts 53°
2026-05-04 18:41 43.53318 16.28755 88 ft 61 kts 53°
2026-05-04 18:41 43.53724 16.29487 80 ft 128 kts 53°
2026-05-04 18:41 43.54350 16.30621 307 ft 156 kts 52°
2026-05-04 18:42 43.54926 16.31886 925 ft 160 kts 79°
2026-05-04 18:42 43.54752 16.33365 1439 ft 169 kts 125°
2026-05-04 18:42 43.53794 16.34423 1808 ft 185 kts 150°
2026-05-04 18:42 43.52682 16.35385 2384 ft 190 kts 146°
2026-05-04 18:43 43.51593 16.36432 3005 ft 193 kts 144°
2026-05-04 18:43 43.50483 16.37507 3598 ft 197 kts 145°
2026-05-04 18:43 43.49347 16.38591 4227 ft 200 kts 146°
2026-05-04 18:43 43.48194 16.39672 4879 ft 201 kts 147°
2026-05-04 18:44 43.46987 16.40653 5500 ft 202 kts 164°
2026-05-04 18:44 43.46049 16.40781 5919 ft 202 kts 190°
2026-05-04 18:44 43.44443 16.39376 6389 ft 228 kts 231°
2026-05-04 18:44 43.43421 16.37555 6754 ft 253 kts 232°
2026-05-04 18:45 43.42321 16.35546 7241 ft 272 kts 232°
2026-05-04 18:45 43.41172 16.33437 8036 ft 278 kts 232°
2026-05-04 18:45 43.40002 16.31302 8936 ft 281 kts 232°
2026-05-04 18:45 43.38811 16.29140 9833 ft 285 kts 232°
2026-05-04 18:46 43.37594 16.26942 10444 ft 298 kts 232°
2026-05-04 18:46 43.36294 16.24582 10725 ft 322 kts 234°
2026-05-04 18:46 43.35433 16.21674 11179 ft 339 kts 262°
2026-05-04 18:46 43.35689 16.18435 11897 ft 349 kts 289°
2026-05-04 18:47 43.36985 16.15602 12702 ft 356 kts 312°
2026-05-04 18:47 43.38838 16.13379 13527 ft 361 kts 323°
2026-05-04 18:47 43.40968 16.11442 14311 ft 365 kts 327°
2026-05-04 18:47 43.43142 16.09600 15054 ft 369 kts 327°
2026-05-04 18:48 43.45305 16.07674 15795 ft 372 kts 325°
2026-05-04 18:48 43.47430 16.05616 16525 ft 375 kts 323°
2026-05-04 18:48 43.49518 16.03436 17259 ft 378 kts 321°
2026-05-04 18:48 43.51586 16.01169 17983 ft 382 kts 320°
2026-05-04 18:49 43.53656 15.98846 18666 ft 386 kts 320°
2026-05-04 18:49 43.55716 15.96524 19294 ft 390 kts 320°
2026-05-04 18:49 43.57826 15.94153 19989 ft 393 kts 320°
2026-05-04 18:49 43.59961 15.91771 20718 ft 396 kts 320°
2026-05-04 18:50 43.62118 15.89378 21434 ft 399 kts 320°
2026-05-04 18:50 43.64294 15.86971 22123 ft 402 kts 320°
2026-05-04 18:50 43.66489 15.84547 22795 ft 405 kts 320°
2026-05-04 18:50 43.68702 15.82105 23467 ft 409 kts 321°
2026-05-04 18:51 43.70931 15.79640 24064 ft 412 kts 320°
2026-05-04 18:51 43.73172 15.77151 24633 ft 415 kts 320°
2026-05-04 18:51 43.75426 15.74641 25198 ft 417 kts 320°
2026-05-04 18:51 43.77693 15.72116 25768 ft 420 kts 320°
2026-05-04 18:52 43.79974 15.69575 26304 ft 422 kts 320°
2026-05-04 18:52 43.82271 15.67020 26860 ft 425 kts 320°
2026-05-04 18:52 43.84581 15.64448 27380 ft 427 kts 320°
2026-05-04 18:52 43.86906 15.61854 27873 ft 431 kts 320°
2026-05-04 18:53 43.89250 15.59230 28331 ft 435 kts 320°
2026-05-04 18:53 43.91616 15.56577 28802 ft 438 kts 320°
2026-05-04 18:53 43.93992 15.53911 29274 ft 440 kts 319°
2026-05-04 18:53 43.96380 15.51232 29739 ft 442 kts 319°
2026-05-04 18:54 43.98746 15.48577 30198 ft 443 kts 319°
2026-05-04 18:54 44.01168 15.45860 30720 ft 441 kts 319°
2026-05-04 18:54 44.03549 15.43182 31264 ft 439 kts 319°
2026-05-04 18:54 44.05890 15.40548 31800 ft 437 kts 319°
2026-05-04 18:55 44.08234 15.37873 32335 ft 434 kts 316°
2026-05-04 18:55 44.12060 15.31490 33424 ft 427 kts 304°
2026-05-04 18:55 44.13772 15.28125 33998 ft 424 kts 304°
2026-05-04 18:56 44.15480 15.24790 34511 ft 421 kts 304°
2026-05-04 18:56 44.17179 15.21479 35006 ft 419 kts 304°
2026-05-04 18:56 44.18873 15.18176 35420 ft 419 kts 304°
2026-05-04 18:56 44.20562 15.14879 35830 ft 418 kts 304°
2026-05-04 18:57 44.22246 15.11581 36290 ft 417 kts 304°
2026-05-04 18:57 44.23919 15.08295 36735 ft 414 kts 304°
2026-05-04 18:57 44.25581 15.05024 37185 ft 412 kts 304°
2026-05-04 18:57 44.27229 15.01772 37663 ft 409 kts 304°
2026-05-04 18:58 44.28865 14.98543 38031 ft 407 kts 304°
2026-05-04 18:58 44.30501 14.95309 38104 ft 408 kts 304°
2026-05-04 18:58 44.33780 14.88814 38106 ft 410 kts 304°
2026-05-04 18:59 44.37064 14.82304 38106 ft 410 kts 304°
2026-05-04 18:59 44.40326 14.75824 38103 ft 410 kts 304°
2026-05-04 19:00 44.43600 14.69301 38122 ft 410 kts 304°
2026-05-04 19:00 44.46896 14.62724 38105 ft 411 kts 304°
2026-05-04 19:01 44.50165 14.56190 38099 ft 412 kts 304°
2026-05-04 19:01 44.53454 14.49595 38096 ft 413 kts 303°
2026-05-04 19:02 44.56741 14.42996 38095 ft 413 kts 303°
2026-05-04 19:02 44.60028 14.36388 38108 ft 413 kts 303°
2026-05-04 19:03 44.63306 14.29770 38100 ft 413 kts 303°
2026-05-04 19:03 44.66571 14.23144 38105 ft 412 kts 303°
2026-05-04 19:04 44.69842 14.16509 38105 ft 412 kts 303°
2026-05-04 19:04 44.73101 14.09874 38109 ft 413 kts 303°
2026-05-04 19:05 44.76350 14.03253 38089 ft 413 kts 303°
2026-05-04 19:05 44.79613 13.96597 38117 ft 413 kts 303°
2026-05-04 19:06 44.82879 13.89917 38118 ft 413 kts 303°
2026-05-04 19:06 44.86135 13.83242 38124 ft 413 kts 303°
2026-05-04 19:07 44.89385 13.76560 38116 ft 413 kts 302°
2026-05-04 19:07 44.92634 13.69870 38113 ft 413 kts 302°
2026-05-04 19:08 44.95874 13.63182 38125 ft 413 kts 302°
2026-05-04 19:08 44.99112 13.56467 38101 ft 413 kts 302°
2026-05-04 19:09 45.02322 13.49790 38075 ft 414 kts 302°
2026-05-04 19:09 45.05564 13.43052 38068 ft 414 kts 302°
2026-05-04 19:10 45.08803 13.36300 38072 ft 414 kts 302°
2026-05-04 19:10 45.12020 13.29579 38065 ft 414 kts 302°
2026-05-04 19:11 45.15269 13.22770 38068 ft 414 kts 302°
2026-05-04 19:11 45.18472 13.16044 38068 ft 415 kts 302°
2026-05-04 19:12 45.23304 13.05871 38073 ft 415 kts 302°
2026-05-04 19:13 45.26543 12.99005 38060 ft 416 kts 301°
2026-05-04 19:13 45.29619 12.92109 38059 ft 416 kts 300°
2026-05-04 19:14 45.32625 12.85083 38069 ft 416 kts 299°
2026-05-04 19:14 45.35632 12.78052 38066 ft 416 kts 299°
2026-05-04 19:15 45.38664 12.71035 38067 ft 416 kts 300°
2026-05-04 19:15 45.41709 12.64022 38066 ft 416 kts 300°
2026-05-04 19:16 45.44747 12.56998 38065 ft 417 kts 300°
2026-05-04 19:16 45.47262 12.51142 38076 ft 417 kts 299°
2026-05-04 19:17 45.50281 12.44086 38075 ft 417 kts 299°
2026-05-04 19:17 45.53301 12.37020 38068 ft 417 kts 299°
2026-05-04 19:18 45.56320 12.29954 38065 ft 418 kts 299°
2026-05-04 19:18 45.59343 12.22845 38063 ft 418 kts 299°
2026-05-04 19:19 45.62354 12.15752 38073 ft 418 kts 299°
2026-05-04 19:19 45.65370 12.08627 38066 ft 419 kts 299°
2026-05-04 19:20 45.68360 12.01536 38064 ft 419 kts 299°
2026-05-04 19:20 45.71370 11.94396 38106 ft 419 kts 299°
2026-05-04 19:21 45.74377 11.87242 38104 ft 420 kts 298°
2026-05-04 19:21 45.77378 11.80058 38125 ft 420 kts 298°
2026-05-04 19:22 45.80382 11.72871 38123 ft 421 kts 298°
2026-05-04 19:22 45.83389 11.65673 38140 ft 421 kts 298°
2026-05-04 19:23 45.86386 11.58463 38131 ft 421 kts 298°
2026-05-04 19:23 45.89388 11.51246 38149 ft 421 kts 298°
2026-05-04 19:24 45.92382 11.44016 38155 ft 421 kts 298°
2026-05-04 19:24 45.95366 11.36768 38168 ft 421 kts 298°
2026-05-04 19:25 45.98350 11.29511 38173 ft 421 kts 298°
2026-05-04 19:25 46.01308 11.22301 38179 ft 421 kts 298°
2026-05-04 19:26 46.04276 11.15040 38216 ft 421 kts 298°
2026-05-04 19:26 46.07218 11.07734 38201 ft 421 kts 297°
2026-05-04 19:27 46.10135 11.00397 38201 ft 422 kts 297°
2026-05-04 19:27 46.13059 10.93054 38193 ft 422 kts 297°
2026-05-04 19:28 46.15980 10.85714 38191 ft 422 kts 297°
2026-05-04 19:28 46.18889 10.78403 38199 ft 423 kts 297°
2026-05-04 19:29 46.21809 10.71026 38186 ft 423 kts 297°
2026-05-04 19:29 46.24726 10.63642 38184 ft 424 kts 297°
2026-05-04 19:30 46.27639 10.56232 38171 ft 424 kts 297°
2026-05-04 19:30 46.30552 10.48803 38173 ft 424 kts 297°
2026-05-04 19:31 46.33454 10.41385 38176 ft 424 kts 297°
2026-05-04 19:31 46.36362 10.33936 38170 ft 424 kts 297°
2026-05-04 19:32 46.39249 10.26529 38147 ft 424 kts 297°
2026-05-04 19:32 46.42141 10.19090 38147 ft 424 kts 296°
2026-05-04 19:33 46.45024 10.11625 38137 ft 424 kts 296°
2026-05-04 19:33 46.48006 10.04236 38141 ft 426 kts 303°
2026-05-04 19:34 46.51885 9.97694 38130 ft 429 kts 308°
2026-05-04 19:34 46.55852 9.91192 38134 ft 430 kts 308°
2026-05-04 19:35 46.59815 9.84656 38137 ft 431 kts 308°
2026-05-04 19:35 46.63754 9.78137 38129 ft 431 kts 308°
2026-05-04 19:36 46.67710 9.71569 38123 ft 432 kts 308°
2026-05-04 19:36 46.71671 9.64990 38109 ft 432 kts 308°
2026-05-04 19:37 46.75625 9.58394 38080 ft 432 kts 308°
2026-05-04 19:37 46.79583 9.51776 38063 ft 433 kts 308°
2026-05-04 19:38 46.83545 9.45144 38044 ft 434 kts 308°
2026-05-04 19:38 46.87515 9.38496 38053 ft 434 kts 308°
2026-05-04 19:39 46.91480 9.31823 38043 ft 435 kts 308°
2026-05-04 19:39 46.95454 9.25129 38028 ft 435 kts 307°
2026-05-04 19:40 46.99416 9.18421 38037 ft 436 kts 308°
2026-05-04 19:40 47.03385 9.11705 38022 ft 436 kts 308°
2026-05-04 19:41 47.07326 9.05017 38045 ft 436 kts 307°
2026-05-04 19:41 47.11307 8.98236 38032 ft 435 kts 307°
2026-05-04 19:42 47.15083 8.91371 38023 ft 432 kts 298°
2026-05-04 19:42 47.17562 8.83422 38017 ft 427 kts 288°
2026-05-04 19:43 47.19643 8.75227 38014 ft 428 kts 288°
2026-05-04 19:43 47.21733 8.67035 38038 ft 428 kts 288°
2026-05-04 19:44 47.23823 8.58811 38032 ft 428 kts 287°
2026-05-04 19:44 47.25891 8.50583 38030 ft 429 kts 287°
2026-05-04 19:45 47.27959 8.42342 38048 ft 429 kts 287°
2026-05-04 19:45 47.30032 8.34097 38049 ft 429 kts 287°
2026-05-04 19:46 47.32104 8.25856 38065 ft 429 kts 287°
2026-05-04 19:46 47.34141 8.17634 38054 ft 429 kts 287°
2026-05-04 19:47 47.36186 8.09351 38045 ft 429 kts 287°
2026-05-04 19:47 47.38223 8.01098 38043 ft 429 kts 287°
2026-05-04 19:48 47.40255 7.92824 38040 ft 429 kts 287°
2026-05-04 19:48 47.42277 7.84546 38035 ft 428 kts 287°
2026-05-04 19:49 47.44303 7.76256 38028 ft 428 kts 286°
2026-05-04 19:49 47.46299 7.68015 38022 ft 428 kts 286°
2026-05-04 19:50 47.47832 7.59574 38020 ft 425 kts 281°
2026-05-04 19:50 47.49258 7.51075 38039 ft 425 kts 281°
2026-05-04 19:51 47.51387 7.42920 38040 ft 434 kts 302°
2026-05-04 19:51 47.55071 7.35813 38027 ft 436 kts 304°
2026-05-04 19:52 47.58818 7.28730 38028 ft 437 kts 304°
2026-05-04 19:52 47.62562 7.21629 38011 ft 437 kts 304°
2026-05-04 19:53 47.66328 7.14530 38036 ft 437 kts 304°
2026-05-04 19:53 47.70061 7.07415 38021 ft 437 kts 303°
2026-05-04 19:54 47.73781 7.00246 38023 ft 438 kts 303°
2026-05-04 19:54 47.77487 6.93079 38019 ft 438 kts 303°
2026-05-04 19:55 47.81207 6.85890 38033 ft 438 kts 304°
2026-05-04 19:55 47.84923 6.78712 38024 ft 438 kts 304°
2026-05-04 19:56 47.88620 6.71545 38034 ft 439 kts 303°
2026-05-04 19:56 47.92339 6.64301 38027 ft 440 kts 303°
2026-05-04 19:57 47.96046 6.57043 38020 ft 440 kts 303°
2026-05-04 19:57 47.99750 6.49776 38015 ft 439 kts 303°
2026-05-04 19:58 48.03464 6.42484 38008 ft 440 kts 303°
2026-05-04 19:58 48.07137 6.35250 38024 ft 440 kts 303°
2026-05-04 19:59 48.10832 6.27941 38008 ft 441 kts 303°
2026-05-04 19:59 48.14534 6.20622 38011 ft 441 kts 303°
2026-05-04 20:00 48.18237 6.13293 38001 ft 441 kts 303°
2026-05-04 20:00 48.21928 6.05957 38003 ft 441 kts 303°
2026-05-04 20:01 48.25014 5.99784 38042 ft 441 kts 303°
2026-05-04 20:01 48.28693 5.92406 38030 ft 441 kts 303°
2026-05-04 20:02 48.32348 5.85071 37999 ft 442 kts 303°
2026-05-04 20:02 48.36031 5.77671 37991 ft 442 kts 303°
2026-05-04 20:03 48.39718 5.70248 37985 ft 442 kts 303°
2026-05-04 20:03 48.43390 5.62824 37981 ft 443 kts 303°
2026-05-04 20:04 48.47070 5.55367 37989 ft 443 kts 302°
2026-05-04 20:04 48.50743 5.47892 37978 ft 444 kts 302°
2026-05-04 20:05 48.54421 5.40403 37983 ft 445 kts 303°
2026-05-04 20:05 48.58100 5.32892 37977 ft 445 kts 302°
2026-05-04 20:06 48.61776 5.25346 37985 ft 445 kts 302°
2026-05-04 20:06 48.65433 5.17798 37998 ft 445 kts 302°
2026-05-04 20:07 48.69098 5.10235 37997 ft 445 kts 302°
2026-05-04 20:07 48.72765 5.02677 37990 ft 446 kts 302°
2026-05-04 20:08 48.76408 4.95145 37990 ft 445 kts 302°
2026-05-04 20:08 48.80060 4.87556 37988 ft 445 kts 302°
2026-05-04 20:09 48.83707 4.79941 38002 ft 446 kts 302°
2026-05-04 20:09 48.87354 4.72322 37988 ft 446 kts 302°
2026-05-04 20:10 48.90978 4.64732 37981 ft 446 kts 302°
2026-05-04 20:10 48.94613 4.57093 37976 ft 446 kts 302°
2026-05-04 20:11 48.98241 4.49438 37978 ft 446 kts 302°
2026-05-04 20:11 49.01870 4.41765 37968 ft 446 kts 302°
2026-05-04 20:12 49.05488 4.34098 37975 ft 446 kts 302°
2026-05-04 20:12 49.09104 4.26404 37968 ft 446 kts 302°
2026-05-04 20:13 49.12715 4.18707 37960 ft 446 kts 302°
2026-05-04 20:13 49.16324 4.11003 37961 ft 446 kts 302°
2026-05-04 20:14 49.19908 4.03329 37960 ft 446 kts 302°
2026-05-04 20:14 49.23502 3.95594 37974 ft 446 kts 302°
2026-05-04 20:15 49.27087 3.87852 37980 ft 445 kts 302°
2026-05-04 20:15 49.30666 3.80108 37979 ft 445 kts 302°
2026-05-04 20:16 49.34245 3.72355 37972 ft 445 kts 302°
2026-05-04 20:16 49.37814 3.64601 37969 ft 445 kts 302°
2026-05-04 20:17 49.41376 3.56831 37990 ft 445 kts 302°
2026-05-04 20:17 49.44927 3.49038 37981 ft 445 kts 302°
2026-05-04 20:18 49.48458 3.41289 37980 ft 445 kts 302°
2026-05-04 20:18 49.52007 3.33488 37975 ft 445 kts 302°
2026-05-04 20:19 49.55550 3.25663 37972 ft 445 kts 302°
2026-05-04 20:19 49.59081 3.17834 37972 ft 445 kts 302°
2026-05-04 20:20 49.62613 3.09997 37984 ft 445 kts 302°
2026-05-04 20:20 49.66143 3.02149 37975 ft 445 kts 302°
2026-05-04 20:21 49.69657 2.94287 37975 ft 445 kts 301°
2026-05-04 20:21 49.74935 2.82443 37978 ft 446 kts 302°
2026-05-04 20:22 49.78455 2.74541 37979 ft 446 kts 302°
2026-05-04 20:22 49.81964 2.66625 37995 ft 446 kts 302°
2026-05-04 20:23 49.85445 2.58741 37992 ft 446 kts 302°
2026-05-04 20:23 49.88940 2.50793 37996 ft 446 kts 301°
2026-05-04 20:24 49.92440 2.42815 37992 ft 446 kts 301°
2026-05-04 20:24 49.95930 2.34847 37996 ft 446 kts 302°
2026-05-04 20:25 49.99420 2.26871 38007 ft 446 kts 302°
2026-05-04 20:25 50.02882 2.18919 37989 ft 447 kts 302°
2026-05-04 20:26 50.06365 2.10876 37984 ft 448 kts 302°
2026-05-04 20:26 50.09848 2.02824 37992 ft 448 kts 302°
2026-05-04 20:27 50.13330 1.94753 37993 ft 449 kts 302°
2026-05-04 20:27 50.16849 1.86709 37979 ft 450 kts 306°
2026-05-04 20:28 50.21193 1.79723 37886 ft 453 kts 314°
2026-05-04 20:28 50.23461 1.76289 37611 ft 453 kts 314°
2026-05-04 20:28 50.25718 1.72858 37339 ft 453 kts 313°
2026-05-04 20:29 50.27968 1.69419 37048 ft 452 kts 313°
2026-05-04 20:29 50.30217 1.65975 36353 ft 454 kts 313°
2026-05-04 20:29 50.32478 1.62509 35617 ft 456 kts 313°
2026-05-04 20:29 50.34755 1.59012 34807 ft 459 kts 312°
2026-05-04 20:30 50.37034 1.55506 33969 ft 462 kts 312°
2026-05-04 20:30 50.39332 1.51964 32915 ft 465 kts 312°
2026-05-04 20:30 50.41637 1.48411 32151 ft 463 kts 313°
2026-05-04 20:30 50.43925 1.44889 31635 ft 456 kts 313°
2026-05-04 20:31 50.46178 1.41418 31041 ft 452 kts 313°
2026-05-04 20:31 50.48384 1.38011 30486 ft 448 kts 313°
2026-05-04 20:31 50.50579 1.34562 29889 ft 444 kts 311°
2026-05-04 20:31 50.52726 1.31013 29289 ft 439 kts 310°
2026-05-04 20:32 50.54776 1.27501 28745 ft 433 kts 310°
2026-05-04 20:32 50.56783 1.24007 28186 ft 427 kts 309°
2026-05-04 20:32 50.58744 1.20620 27651 ft 422 kts 311°
2026-05-04 20:32 50.60770 1.17297 27120 ft 419 kts 312°
2026-05-04 20:33 50.62825 1.14057 26592 ft 417 kts 313°
2026-05-04 20:33 50.64887 1.10866 26067 ft 414 kts 313°
2026-05-04 20:33 50.66955 1.07674 25558 ft 412 kts 314°
2026-05-04 20:33 50.68991 1.04508 25062 ft 410 kts 313°
2026-05-04 20:34 50.71012 1.01334 24577 ft 408 kts 313°
2026-05-04 20:34 50.73009 0.98168 24101 ft 406 kts 313°
2026-05-04 20:34 50.74995 0.95003 23640 ft 405 kts 313°
2026-05-04 20:34 50.76969 0.91845 23139 ft 403 kts 313°
2026-05-04 20:35 50.78929 0.88706 22681 ft 400 kts 313°
2026-05-04 20:35 50.80851 0.85627 22228 ft 397 kts 313°
2026-05-04 20:35 50.82788 0.82523 21758 ft 395 kts 313°
2026-05-04 20:35 50.84713 0.79436 21284 ft 393 kts 313°
2026-05-04 20:36 50.86627 0.76370 20814 ft 390 kts 313°
2026-05-04 20:36 50.88532 0.73323 20310 ft 388 kts 313°
2026-05-04 20:36 50.90419 0.70299 19815 ft 386 kts 314°
2026-05-04 20:36 50.92304 0.67272 19296 ft 384 kts 314°
2026-05-04 20:37 50.94172 0.64263 18792 ft 382 kts 314°
2026-05-04 20:37 50.96028 0.61267 18266 ft 380 kts 314°
2026-05-04 20:37 50.97873 0.58283 17658 ft 378 kts 314°
2026-05-04 20:37 50.99718 0.55300 17001 ft 378 kts 314°
2026-05-04 20:38 51.01559 0.52319 16371 ft 378 kts 314°
2026-05-04 20:38 51.03398 0.49339 15733 ft 377 kts 314°
2026-05-04 20:38 51.05215 0.46392 15112 ft 378 kts 315°
2026-05-04 20:38 51.07054 0.43418 14586 ft 374 kts 315°
2026-05-04 20:39 51.08908 0.40516 14052 ft 371 kts 317°
2026-05-04 20:39 51.10763 0.37676 13493 ft 368 kts 317°
2026-05-04 20:39 51.12615 0.34878 12882 ft 366 kts 317°
2026-05-04 20:39 51.14448 0.32117 12291 ft 362 kts 317°
2026-05-04 20:40 51.16277 0.29346 11698 ft 363 kts 316°
2026-05-04 20:40 51.18097 0.26582 11121 ft 359 kts 316°
2026-05-04 20:40 51.19892 0.23833 10561 ft 358 kts 316°
2026-05-04 20:40 51.21670 0.21098 10102 ft 349 kts 316°
2026-05-04 20:41 51.23372 0.18471 9986 ft 334 kts 316°
2026-05-04 20:41 51.25012 0.15950 9855 ft 320 kts 316°
2026-05-04 20:41 51.26587 0.13524 9719 ft 309 kts 316°
2026-05-04 20:41 51.28106 0.11184 9585 ft 297 kts 316°
2026-05-04 20:42 51.29552 0.08955 9446 ft 279 kts 316°
2026-05-04 20:42 51.30909 0.06862 9310 ft 263 kts 316°
2026-05-04 20:42 51.32139 0.04826 9076 ft 255 kts 307°
2026-05-04 20:42 51.32980 0.02364 8898 ft 251 kts 289°
2026-05-04 20:43 51.33326 -0.00369 8757 ft 251 kts 275°
2026-05-04 20:43 51.33486 -0.03145 8624 ft 250 kts 275°
2026-05-04 20:43 51.33652 -0.05899 8496 ft 249 kts 275°
2026-05-04 20:43 51.33819 -0.08646 8367 ft 247 kts 275°
2026-05-04 20:44 51.33985 -0.11373 8241 ft 246 kts 275°
2026-05-04 20:44 51.34149 -0.14097 8123 ft 245 kts 275°
2026-05-04 20:44 51.34310 -0.16799 8023 ft 244 kts 275°
2026-05-04 20:44 51.34471 -0.19496 7917 ft 244 kts 275°
2026-05-04 20:45 51.34632 -0.22193 7823 ft 243 kts 275°
2026-05-04 20:45 51.34793 -0.24882 7723 ft 243 kts 275°
2026-05-04 20:45 51.34899 -0.26666 7648 ft 243 kts 275°
2026-05-04 20:45 51.35058 -0.29359 7549 ft 242 kts 275°
2026-05-04 20:46 51.35215 -0.32032 7457 ft 242 kts 275°
2026-05-04 20:46 51.35368 -0.34718 7362 ft 242 kts 275°
2026-05-04 20:46 51.35521 -0.37392 7263 ft 242 kts 275°
2026-05-04 20:46 51.35674 -0.40072 7165 ft 242 kts 275°
2026-05-04 20:47 51.35828 -0.42747 7065 ft 241 kts 275°
2026-05-04 20:47 51.35982 -0.45410 6969 ft 240 kts 275°
2026-05-04 20:47 51.36134 -0.48065 6866 ft 240 kts 275°
2026-05-04 20:47 51.36286 -0.50729 6771 ft 240 kts 275°
2026-05-04 20:48 51.36437 -0.53379 6674 ft 239 kts 275°
2026-05-04 20:48 51.36582 -0.56020 6571 ft 238 kts 275°
2026-05-04 20:48 51.36727 -0.58654 6479 ft 237 kts 275°
2026-05-04 20:48 51.36874 -0.61293 6373 ft 238 kts 275°
2026-05-04 20:49 51.37024 -0.63917 6267 ft 238 kts 275°
2026-05-04 20:49 51.37144 -0.66569 5986 ft 240 kts 272°
2026-05-04 20:49 51.37157 -0.69259 5626 ft 243 kts 270°
2026-05-04 20:49 51.37122 -0.71970 5293 ft 244 kts 269°
2026-05-04 20:50 51.37179 -0.74649 5034 ft 239 kts 284°
2026-05-04 20:50 51.37903 -0.76966 4819 ft 231 kts 313°
2026-05-04 20:50 51.39184 -0.78401 4611 ft 223 kts 341°
2026-05-04 20:50 51.40683 -0.78774 4403 ft 216 kts 359°
2026-05-04 20:51 51.42165 -0.78838 4197 ft 210 kts 359°
2026-05-04 20:51 51.43603 -0.78916 3993 ft 204 kts 359°
2026-05-04 20:51 51.44989 -0.78991 3792 ft 199 kts 359°
2026-05-04 20:51 51.46339 -0.78845 3608 ft 189 kts 24°
2026-05-04 20:52 51.47319 -0.77582 3561 ft 182 kts 59°
2026-05-04 20:52 51.47618 -0.75650 3422 ft 181 kts 89°
2026-05-04 20:52 51.47621 -0.73614 3201 ft 181 kts 88°
2026-05-04 20:52 51.47632 -0.71588 2966 ft 182 kts 88°
2026-05-04 20:53 51.47643 -0.69538 2720 ft 184 kts 88°
2026-05-04 20:53 51.47655 -0.67473 2470 ft 186 kts 88°
2026-05-04 20:53 51.47666 -0.65419 2247 ft 183 kts 88°
2026-05-04 20:53 51.47678 -0.63375 1969 ft 181 kts 86°
2026-05-04 20:54 51.47687 -0.61430 1726 ft 168 kts 87°
2026-05-04 20:54 51.47696 -0.59612 1497 ft 159 kts 87°
2026-05-04 20:54 51.47703 -0.57868 1296 ft 155 kts 86°
2026-05-04 20:54 51.47712 -0.56205 1082 ft 143 kts 87°
2026-05-04 20:55 51.47721 -0.54653 894 ft 137 kts 86°
2026-05-04 20:55 51.47728 -0.53123 703 ft 137 kts 87°
2026-05-04 20:55 51.47740 -0.51603 513 ft 136 kts 87°
2026-05-04 20:55 51.47743 -0.50098 312 ft 135 kts 86°
2026-05-04 20:56 51.47750 -0.48590 150 ft 136 kts 87°
2026-05-04 20:56 51.47756 -0.47169 90 ft 112 kts 90°
2026-05-04 20:56 51.47759 -0.46196 90 ft 62 kts 90°
2026-05-04 20:56 51.47761 -0.45684 84 ft 36 kts 89°
2026-05-04 20:57 51.47730 -0.45480 87 ft 13 kts 150°